Theta_e
356 356 355 356 356 356 356 355 355 355 355 355 355 354 353 353 353 353 352 352 352 352 352 352 352 352 352 352 353 351 351 354 355 356 356 355 355 354 353 352 349 347 346 342 339 338 340 340 339 338 337 337 337 338 338 337 336 337 336 337 338 338 338 339 340 341 341 338 336 337 337 336 337 337 337 338 337 335 333 332 331 332 333 335 335
355 354 355 356 356 356 356 356 355 355 356 356 356 355 355 353 352 352 353 352 352 352 352 353 352 352 352 352 352 351 350 353 355 356 356 355 355 354 353 352 350 348 346 344 340 338 339 341 341 339 338 338 338 338 340 339 338 339 338 338 340 339 337 339 340 340 341 340 338 339 338 337 337 338 337 338 339 338 336 336 334 334 334 335 336
354 354 354 355 355 356 356 357 356 356 356 356 356 356 355 354 353 352 353 353 353 352 352 353 352 352 352 352 352 351 351 353 355 356 356 355 355 354 353 352 350 348 347 345 342 339 339 340 342 341 339 339 340 339 340 340 339 339 339 338 339 340 338 338 340 341 341 342 341 340 340 338 337 337 337 337 337 337 337 337 337 336 335 335 336
354 354 354 355 355 356 357 357 357 356 357 357 357 356 356 355 354 353 353 353 354 352 352 353 352 352 352 352 352 352 352 353 355 356 355 355 355 354 353 353 351 349 348 346 344 341 339 340 341 342 340 339 340 340 339 340 339 338 340 339 338 340 340 338 339 341 341 342 342 341 340 339 337 337 337 337 336 336 336 336 336 336 336 336 336
354 354 354 355 356 356 357 357 357 356 357 356 356 356 356 356 355 354 354 354 354 353 352 352 353 353 352 351 351 351 352 353 354 355 355 355 354 354 353 353 351 350 349 347 346 343 341 340 340 341 340 340 341 340 339 339 338 338 340 340 339 340 341 339 339 341 341 341 342 342 341 339 337 337 336 337 338 338 337 336 336 336 336 336 337
353 354 355 355 355 356 357 356 357 357 356 356 356 356 356 356 356 355 354 354 355 354 353 353 353 353 352 351 351 350 351 353 354 354 354 354 354 353 353 352 352 350 349 347 346 345 343 341 339 339 338 340 341 341 339 338 338 339 340 340 339 340 340 340 340 341 342 341 342 343 342 341 340 340 339 338 339 340 339 338 338 336 335 335 337
353 354 354 354 356 357 357 356 357 357 357 357 357 356 356 356 356 356 356 355 355 355 355 354 353 353 352 352 351 351 351 353 353 353 353 353 354 353 352 352 351 350 349 348 347 346 344 343 341 339 336 337 339 340 340 338 338 338 339 339 339 339 340 342 342 342 342 342 342 342 342 342 342 342 340 338 337 338 339 339 340 339 337 336 336
353 354 354 354 356 356 356 356 356 357 357 357 357 357 357 357 356 356 356 356 356 356 356 356 354 353 353 352 352 352 352 353 353 353 353 353 353 352 352 351 351 350 349 349 347 346 345 344 342 341 338 336 336 338 339 339 339 338 338 338 339 340 341 342 343 343 342 342 342 342 342 342 342 341 340 338 339 340 340 339 340 340 340 339 337
352 353 354 355 355 354 354 356 356 356 357 357 357 357 357 357 357 357 357 356 356 356 356 356 356 355 354 353 353 353 353 353 353 353 353 352 352 352 351 351 350 350 349 349 347 346 345 345 344 343 342 339 336 337 337 338 339 338 338 338 338 339 341 342 343 343 343 342 342 342 343 343 342 342 342 342 342 343 341 339 339 340 340 340 339
351 354 355 354 352 352 353 355 356 356 357 357 357 357 357 357 357 357 357 357 356 356 356 357 357 356 355 354 354 354 354 353 353 353 352 352 351 351 351 351 350 350 349 348 347 346 346 345 344 344 343 341 339 337 337 337 338 338 338 338 338 339 340 342 343 343 343 342 342 342 342 342 343 343 343 343 342 342 341 340 340 340 340 339 339
351 353 354 352 351 352 353 354 356 356 356 357 357 357 357 357 357 358 357 357 357 357 357 357 357 357 357 356 355 355 354 353 353 352 352 352 351 351 351 350 349 349 349 349 347 347 346 345 345 344 343 341 339 338 338 338 338 338 338 338 338 338 340 341 343 343 343 342 341 342 342 342 343 343 343 342 341 341 341 340 340 340 339 338 337
352 352 352 352 352 353 354 355 355 356 356 357 357 357 357 358 358 358 358 358 358 358 357 358 358 357 357 357 357 356 355 354 353 353 352 351 351 350 351 350 349 349 349 349 348 347 347 346 344 344 343 341 340 340 339 338 339 339 339 338 338 338 338 338 340 342 342 341 341 341 342 343 344 343 342 341 341 341 341 340 340 339 338 337 336
352 351 352 353 353 354 354 355 355 356 356 356 357 357 357 358 359 358 359 358 358 358 358 358 358 358 358 358 357 357 356 354 353 352 352 352 351 351 350 350 350 349 348 349 348 348 347 346 345 344 342 342 341 340 339 339 339 339 339 339 338 338 338 338 338 339 340 340 341 342 343 343 341 340 340 340 340 341 341 340 339 339 337 336 334
351 352 352 353 353 354 355 356 356 357 357 356 357 358 357 358 358 358 359 358 359 359 358 358 358 358 358 357 357 357 357 355 354 353 352 352 351 350 350 350 350 349 349 349 349 349 348 347 346 344 342 341 341 340 340 339 339 339 339 339 338 338 339 339 338 338 338 339 341 342 342 341 337 336 337 338 338 340 340 340 338 337 336 335 334
351 352 353 354 354 354 356 356 357 358 358 358 358 358 358 359 358 358 359 359 359 359 358 359 359 358 358 358 357 357 357 356 354 353 352 352 352 351 350 350 350 349 349 349 349 349 349 348 346 344 343 342 341 341 341 339 339 340 339 339 339 338 338 339 339 338 337 338 339 340 340 338 333 333 337 338 338 338 338 338 337 336 334 333 332
353 354 355 355 355 356 357 358 358 359 359 359 359 358 359 359 359 359 359 359 360 360 359 359 359 358 358 358 357 357 357 356 355 354 353 352 352 350 349 349 350 349 349 349 349 349 349 347 346 344 343 343 342 342 341 339 339 341 341 340 339 339 339 339 338 337 337 338 339 338 336 334 331 334 337 338 338 338 337 336 335 334 333 332 330
355 354 355 356 356 357 357 357 359 359 359 360 360 359 359 359 360 359 359 359 359 359 360 359 359 359 358 358 358 358 357 357 355 354 353 353 352 351 349 350 350 350 349 349 348 348 348 347 346 344 343 344 343 343 341 338 339 342 343 343 342 342 342 340 338 337 338 338 336 334 332 331 332 335 337 338 338 336 335 335 334 333 332 331 329
355 353 355 356 356 356 355 355 357 359 360 360 360 360 360 360 360 360 359 359 359 359 360 360 359 360 359 358 359 358 357 357 356 355 354 353 352 351 350 350 351 350 350 349 349 349 347 346 345 343 344 344 343 344 342 337 338 342 343 343 343 343 343 341 338 338 337 335 333 330 329 330 334 337 338 337 336 333 333 334 333 331 330 329 328
353 353 354 355 355 355 354 355 356 358 359 360 360 360 361 361 361 360 359 359 360 360 360 360 360 360 359 359 358 358 358 358 356 355 355 353 353 352 351 350 351 351 351 350 350 349 347 345 344 343 344 344 344 344 342 337 337 342 343 342 342 342 342 340 339 337 335 333 331 330 331 333 336 338 337 335 333 332 332 333 331 329 329 328 328
352 352 353 354 354 354 354 355 356 358 359 359 359 360 361 361 361 360 359 359 360 360 360 360 361 360 360 359 358 357 358 358 357 355 355 354 353 352 351 351 351 351 351 351 350 348 345 344 344 342 343 344 343 343 341 338 338 342 343 342 342 342 341 340 339 337 334 331 329 330 333 336 336 337 335 333 332 331 330 330 330 329 328 327 326
352 353 353 355 356 355 355 355 356 358 359 359 359 359 360 361 361 360 360 360 360 360 360 360 360 360 360 359 359 358 358 358 357 356 355 354 354 352 351 351 351 351 352 351 349 346 345 344 343 342 343 343 342 342 341 339 340 341 342 342 341 342 341 339 337 335 333 332 331 333 335 336 335 335 333 332 331 330 329 329 328 328 327 326 324
352 352 352 354 356 356 357 357 357 358 360 360 360 359 360 360 361 361 361 361 361 361 361 361 360 360 360 359 359 359 358 358 357 356 355 354 354 353 352 352 352 352 352 351 348 346 344 344 344 343 343 342 342 341 340 339 339 340 342 341 340 340 340 338 336 335 335 334 334 335 336 335 334 334 332 330 330 329 328 328 327 327 326 325 323
353 353 353 355 356 358 359 359 358 359 361 361 361 361 361 361 362 362 362 361 362 361 361 361 361 360 360 360 359 359 358 358 357 356 355 354 354 353 353 352 352 352 352 351 348 345 344 344 343 343 343 342 342 340 339 338 339 339 340 340 339 339 338 336 334 334 335 336 336 336 336 335 334 333 331 330 329 328 328 327 326 325 325 323 322
353 355 355 355 357 358 359 359 359 361 361 362 361 362 362 362 362 363 362 362 362 361 361 361 361 360 360 360 360 359 359 358 357 355 355 354 354 353 353 353 352 351 352 351 348 345 344 343 343 344 343 342 341 339 338 338 338 338 338 338 338 337 335 333 332 334 335 336 336 336 335 334 333 332 330 329 328 327 326 325 324 324 323 323 321
355 355 355 356 357 356 357 359 359 360 362 362 362 363 363 363 363 363 363 362 362 362 362 361 361 361 360 360 360 359 359 358 356 355 354 354 354 354 353 353 353 352 351 350 348 346 345 344 344 344 343 342 340 339 338 339 339 339 338 337 336 334 332 331 332 335 336 337 336 336 334 333 332 330 329 328 327 325 324 323 323 322 321 320 319
360 358 358 357 356 356 357 357 357 359 360 361 362 363 363 363 364 363 363 362 362 362 362 361 362 361 360 360 360 360 359 357 355 354 354 354 354 353 353 353 353 352 350 349 348 346 345 344 343 342 341 340 339 338 338 339 339 338 337 336 335 333 332 332 333 335 337 337 336 335 334 331 329 328 326 326 325 324 323 323 322 321 320 319 319
362 362 361 360 359 358 357 356 356 357 358 359 360 362 362 363 363 363 363 362 362 362 362 361 361 361 361 361 360 360 359 356 353 352 353 353 353 353 353 353 351 349 348 347 346 345 344 343 343 342 340 339 338 338 339 339 338 336 335 334 334 333 333 333 334 334 336 336 336 334 332 329 327 326 324 324 324 325 323 322 322 321 320 319 317
358 359 360 361 360 360 359 358 357 357 357 357 357 359 360 361 362 362 363 363 363 362 362 362 361 361 361 361 361 360 356 352 350 351 352 353 353 351 350 349 346 344 344 344 344 343 342 341 340 339 338 336 336 336 336 336 335 333 333 333 333 332 331 331 332 335 336 335 334 331 328 326 326 326 325 324 325 325 323 322 322 321 319 317 316
352 352 353 354 354 354 356 358 358 358 358 358 358 358 358 358 360 361 361 362 362 362 362 362 362 361 361 361 361 360 355 351 351 352 353 353 353 350 348 348 345 341 343 344 342 340 338 336 335 334 334 334 334 334 333 332 332 332 332 332 331 330 330 331 333 335 334 332 331 328 326 325 326 326 325 325 326 325 323 321 320 319 317 315 314
349 348 348 348 347 347 349 350 351 351 352 351 352 352 350 350 353 355 357 358 359 360 361 361 361 361 361 361 361 360 357 355 354 352 352 353 353 351 351 351 346 341 341 342 341 337 334 333 333 333 333 333 333 333 332 331 330 330 330 329 329 330 331 333 334 333 331 329 328 327 326 326 326 326 325 326 326 325 322 320 318 316 315 315 314
346 345 344 343 342 343 344 343 343 344 344 344 345 345 345 343 342 342 344 346 349 352 356 358 360 360 360 360 361 359 358 356 353 349 349 352 353 351 351 349 344 339 339 340 338 335 333 333 333 332 332 333 332 332 332 330 329 329 328 328 329 330 331 333 333 331 328 327 327 327 326 326 326 326 325 325 325 323 319 317 315 314 314 314 313
344 344 343 342 342 342 342 342 342 342 343 344 344 344 345 345 342 338 336 335 336 340 344 349 352 354 355 357 359 359 357 355 352 348 348 351 352 350 346 343 339 337 338 338 336 333 333 333 333 332 332 333 333 332 331 330 330 329 329 329 330 331 332 332 331 329 327 327 326 326 326 326 326 326 326 324 323 321 318 316 315 314 313 312 311
344 343 343 343 343 342 343 343 343 343 344 343 342 342 342 343 342 339 335 332 331 331 332 336 339 341 344 347 352 357 357 354 350 349 349 351 349 343 339 338 337 336 336 335 334 333 333 332 332 333 333 333 333 332 332 331 331 331 331 332 332 332 332 331 329 327 327 326 326 325 326 326 326 326 325 322 320 319 317 315 315 314 313 312 311
344 343 343 343 343 342 342 343 343 343 342 341 340 341 340 340 340 338 335 334 332 328 329 331 332 334 338 341 343 350 355 351 348 349 349 344 339 336 335 335 335 335 335 335 334 333 333 332 332 333 333 333 333 333 332 333 333 333 333 333 333 332 332 329 327 326 326 326 325 326 326 326 326 325 323 320 318 317 316 315 314 313 312 311 310
343 343 342 342 343 343 342 342 342 342 341 340 340 341 342 342 341 338 336 335 332 327 328 330 329 329 333 335 337 342 349 348 347 349 346 338 332 332 332 330 330 332 335 335 333 332 332 332 333 333 333 334 334 333 333 333 333 333 334 334 333 332 331 328 326 326 326 326 326 326 327 326 325 323 321 319 317 316 315 314 313 312 311 310 309
342 342 342 342 342 342 341 341 341 340 340 339 339 340 341 342 341 339 336 335 332 328 327 326 324 322 323 324 326 331 341 347 345 341 336 332 332 332 331 329 330 333 334 333 333 332 332 333 333 333 334 334 333 332 332 333 333 333 333 333 332 331 330 328 326 326 326 326 326 326 326 325 323 321 319 317 316 315 314 313 312 310 309 309 308
341 341 341 340 341 340 340 340 338 338 338 338 338 339 340 339 339 338 337 335 332 329 325 323 321 318 316 316 318 321 326 334 336 331 329 331 333 333 332 331 332 333 333 333 333 333 332 333 333 333 333 333 332 332 333 333 333 333 332 332 331 329 328 328 327 326 326 326 326 325 324 323 320 318 317 315 315 314 313 312 310 309 308 307 306
339 339 339 339 340 341 341 339 338 338 338 338 337 337 337 336 336 336 336 333 331 328 325 323 322 321 319 320 322 320 317 318 322 324 326 330 332 332 332 333 333 333 333 333 333 332 332 333 332 332 332 332 332 332 332 332 332 332 331 330 329 327 327 326 326 326 327 326 326 325 323 321 318 316 315 315 314 313 311 310 309 309 308 307 307
340 339 339 339 340 340 340 339 339 338 338 337 336 335 335 335 334 334 333 331 329 327 325 324 324 324 324 324 326 325 322 320 322 324 327 330 332 332 332 333 333 333 333 332 332 332 332 332 332 332 332 331 330 330 331 331 331 331 329 328 326 325 325 325 326 326 326 326 325 323 320 317 316 314 314 314 313 312 310 309 309 308 308 308 308
341 341 339 339 339 340 340 340 339 338 337 336 336 334 333 333 333 332 331 329 327 325 325 323 323 325 327 328 330 331 329 328 328 330 331 332 332 332 332 333 332 332 331 331 331 332 331 332 332 332 330 329 330 330 331 330 329 327 326 325 325 325 326 326 326 326 325 323 321 319 317 315 315 314 313 312 311 310 310 309 308 308 308 308 307
342 341 340 339 339 340 340 339 338 338 337 335 335 334 333 332 332 331 330 328 325 324 324 324 324 326 328 330 333 334 331 329 330 332 332 332 332 332 332 332 332 332 331 331 331 331 332 332 331 330 329 330 330 330 328 327 325 325 324 324 324 325 324 324 323 322 321 319 317 316 315 315 315 313 313 312 311 309 309 308 308 308 308 308 307
342 341 341 340 339 339 339 339 338 338 337 336 335 334 333 332 331 330 328 326 325 325 324 324 325 326 327 328 330 331 330 329 329 330 330 331 331 332 331 331 331 331 331 331 331 331 331 330 329 330 330 330 328 326 324 323 323 322 322 321 322 321 321 320 319 318 317 317 316 316 315 315 314 313 312 312 311 310 309 308 308 308 308 307 307
340 341 340 340 339 338 337 337 338 338 337 336 335 334 333 332 331 329 327 326 325 325 325 325 325 326 326 327 328 329 328 328 328 328 328 329 330 330 330 330 330 330 330 330 331 331 330 329 330 330 329 326 324 323 322 322 321 320 319 319 319 319 318 318 317 317 316 316 316 316 315 314 313 312 312 311 311 310 309 308 308 308 308 307 307
338 339 338 339 339 338 337 336 336 336 336 336 336 335 334 334 333 330 328 327 325 325 325 325 326 326 327 327 328 328 328 327 327 327 327 328 328 328 329 329 330 330 330 331 331 330 330 330 329 327 325 323 322 321 321 320 319 318 318 318 318 317 317 316 316 316 315 315 315 315 315 314 313 312 312 311 311 310 309 309 308 307 307 306 306
336 336 337 337 337 337 337 336 335 335 335 336 336 336 335 335 335 334 331 328 326 325 325 325 327 328 328 328 328 328 328 328 327 327 328 328 328 329 330 330 331 331 331 331 330 330 330 329 327 324 322 321 321 320 319 318 317 317 317 317 317 316 316 316 315 315 314 314 314 314 313 313 312 312 312 311 310 309 308 308 307 306 306 306 305
334 334 335 335 335 335 336 335 335 335 335 334 335 335 334 333 334 333 332 330 328 327 325 325 326 327 327 327 327 328 329 329 329 329 330 330 330 331 331 331 331 331 331 330 330 330 328 326 323 321 321 321 320 319 318 317 315 315 315 316 316 315 315 315 314 313 313 313 313 313 313 312 312 311 311 310 309 308 308 307 307 306 306 306 305
333 333 333 333 333 333 333 333 333 333 333 333 333 333 333 332 331 332 331 330 328 327 326 325 325 325 326 326 326 327 327 328 329 331 332 333 333 332 331 331 330 330 330 330 329 328 326 323 322 321 320 320 319 317 316 315 315 315 315 315 315 314 314 313 313 312 312 312 312 312 312 312 311 310 309 308 308 307 307 306 306 306 306 305 305
330 330 330 330 330 330 330 330 330 330 331 332 332 331 330 330 329 329 329 329 329 328 327 326 324 324 324 325 327 327 327 328 329 331 332 333 333 332 330 330 329 329 328 328 326 324 323 321 321 320 320 319 317 316 315 314 315 315 314 313 312 312 311 310 310 311 311 310 310 311 310 310 310 309 308 307 307 306 306 306 306 305 305 305 304
328 328 328 327 327 327 327 327 327 328 328 329 329 329 329 329 328 327 326 327 328 328 327 326 325 323 323 323 324 325 325 326 327 327 328 328 328 326 325 325 324 324 324 325 324 322 321 321 320 320 319 317 315 315 314 314 314 313 312 312 311 310 309 308 307 306 306 307 308 308 308 308 307 307 306 305 305 305 305 305 304 304 303 303 304
325 325 325 325 325 325 325 325 325 325 325 326 327 327 328 328 327 327 326 326 326 325 325 324 325 324 323 323 324 324 324 325 326 325 325 324 323 322 322 322 321 321 321 321 322 321 320 320 320 319 317 315 314 315 314 313 313 312 312 312 312 311 309 307 304 302 301 303 305 306 306 305 305 304 304 303 303 303 303 303 302 302 301 302 304
321 321 321 321 321 321 322 322 322 322 323 323 324 325 325 326 326 326 325 325 324 323 322 323 323 323 322 322 323 324 324 324 324 324 323 323 322 322 322 321 321 321 321 321 321 321 321 320 320 318 316 314 314 314 314 312 312 312 312 312 312 311 309 307 304 301 299 301 303 304 303 303 303 303 302 302 302 301 300 300 300 301 301 303 305
Wind_Speed
36 39 39 36 36 39 41 43 44 43 40 39 38 38 38 39 39 38 38 38 37 36 36 36 35 35 34 33 33 33 33 33 32 31 30 29 29 28 27 26 25 25 23 21 21 22 21 19 18 18 18 17 17 16 15 15 15 14 13 11 10 10 10 8 7 6 6 6 6 6 7 7 8 8 7 6 6 7 8 9 10 10 10 10 10
38 42 41 39 40 41 40 40 42 41 38 36 36 36 37 40 41 40 39 39 39 38 37 36 36 35 35 34 35 35 34 34 34 33 32 31 30 29 29 27 27 26 25 24 23 23 23 21 20 20 20 18 18 18 16 15 15 14 14 13 11 12 12 11 8 7 7 6 6 7 7 8 8 7 7 6 6 6 7 8 9 9 10 10 10
39 45 45 42 42 40 37 37 39 40 37 35 34 35 35 38 41 42 41 39 39 40 39 37 37 37 36 36 36 36 36 35 35 35 34 33 32 31 31 29 28 28 28 27 25 25 25 24 22 21 21 21 20 20 18 18 17 16 16 16 14 12 14 13 10 8 8 7 6 6 7 8 9 8 7 7 7 7 8 8 8 9 10 11 11
36 42 44 41 40 38 36 36 36 37 36 34 34 34 33 34 39 42 42 38 38 41 41 39 38 38 37 37 37 38 37 37 36 36 36 35 34 33 32 31 30 30 29 29 28 27 26 26 24 23 23 23 22 22 22 21 21 20 18 17 17 14 14 15 13 10 9 8 7 7 7 8 9 8 8 8 8 9 9 9 9 10 12 12 12
32 37 40 38 36 36 37 37 36 36 36 34 34 35 33 31 34 39 41 39 38 40 41 40 39 38 38 39 39 39 39 38 38 37 37 36 35 34 33 32 32 31 31 30 30 29 28 27 27 26 26 26 25 24 24 23 23 23 20 18 18 16 15 16 15 12 11 10 9 8 9 10 10 10 9 9 8 9 10 10 11 11 12 12 12
32 35 37 36 34 36 37 37 36 36 36 35 34 34 34 32 32 35 39 39 37 37 40 41 40 40 40 40 40 41 40 39 39 38 38 37 36 35 34 34 33 32 32 32 31 31 30 29 29 29 29 28 27 26 26 25 25 25 23 21 20 18 17 16 15 13 12 12 11 10 9 9 8 8 9 10 8 8 10 11 12 11 12 12 11
32 33 36 36 34 35 39 40 39 37 36 36 35 34 35 34 33 33 36 38 37 35 35 38 41 41 41 41 42 42 41 41 40 39 39 38 37 36 34 34 34 33 33 33 33 32 32 32 31 31 31 31 30 29 28 27 26 26 25 24 22 21 18 16 15 14 13 13 12 11 10 9 9 8 10 12 12 11 11 11 10 9 10 13 12
33 33 34 33 33 37 42 42 40 37 35 36 37 35 34 35 34 33 34 35 36 35 33 34 38 41 41 42 42 42 42 41 40 40 39 38 37 36 36 35 34 34 34 34 33 33 32 32 33 33 33 33 32 31 30 29 27 26 26 25 23 22 19 16 15 14 14 13 12 11 11 10 10 11 12 13 11 10 9 8 8 9 10 12 13
36 33 32 36 40 43 45 41 38 38 36 35 38 37 34 33 33 33 34 35 34 34 33 32 34 38 41 42 42 41 41 42 41 40 40 39 38 37 37 37 36 35 35 35 34 33 32 33 33 34 34 33 32 31 30 30 29 28 27 26 25 23 19 16 15 15 14 14 13 12 11 10 10 10 10 10 8 7 6 6 9 10 10 12 13
40 34 33 42 46 45 44 40 38 39 38 37 38 39 35 33 33 33 34 35 34 34 34 32 31 34 38 41 40 40 41 43 42 41 40 40 40 38 38 38 37 37 36 35 34 34 34 34 35 35 34 33 31 29 29 29 29 29 28 27 26 25 21 18 16 15 14 14 13 12 11 11 10 8 8 8 7 7 7 7 8 9 9 11 11
40 38 39 45 45 41 41 39 38 39 40 38 38 38 37 35 34 34 35 35 34 34 35 33 31 31 33 36 38 40 42 43 41 41 41 40 39 39 39 39 38 37 37 37 35 35 36 36 35 34 34 32 30 29 29 29 29 29 28 26 26 26 24 20 18 16 15 14 13 13 12 12 9 6 7 7 7 7 7 7 8 8 8 9 10
38 41 42 40 40 39 39 39 38 39 40 39 38 39 38 35 33 34 34 34 34 34 34 34 33 31 30 32 34 37 41 42 41 41 42 41 40 39 38 39 38 36 37 37 36 36 37 36 33 33 34 31 29 29 29 29 29 29 28 27 26 25 24 23 21 18 17 16 15 14 13 10 6 5 7 8 7 8 8 7 7 7 8 9 11
37 40 39 36 38 39 38 38 39 38 40 40 38 38 38 36 35 34 33 33 33 33 34 33 33 33 32 32 33 33 36 40 41 41 42 42 42 39 37 37 38 37 38 38 38 38 38 36 33 33 32 29 27 28 28 28 29 29 28 27 27 26 25 24 22 20 19 17 15 14 11 9 7 7 8 9 9 8 8 8 7 7 8 10 12
36 38 38 37 39 39 37 39 39 38 39 39 36 37 37 36 36 34 32 32 32 33 35 34 34 35 34 34 34 32 33 36 40 42 42 42 42 41 38 37 36 37 39 40 40 40 39 37 35 32 30 28 28 28 27 27 28 29 28 28 29 28 27 25 23 22 21 18 15 14 13 12 12 10 9 10 11 10 9 8 8 8 9 11 12
34 34 34 35 38 38 38 39 36 34 34 34 34 35 35 35 35 33 31 31 32 34 35 35 36 36 35 35 35 33 33 35 38 41 43 43 42 41 40 35 32 36 39 40 41 41 40 38 35 31 29 29 30 29 27 27 27 28 29 30 30 30 29 26 24 23 23 21 20 19 16 14 13 10 10 11 12 11 9 9 7 7 9 11 11
28 28 29 31 34 35 35 35 32 30 30 31 32 33 33 34 34 32 31 31 31 32 34 35 36 35 35 36 36 34 33 34 37 40 43 43 41 41 42 36 31 35 39 39 40 41 40 38 34 30 29 29 30 29 27 26 26 25 26 28 29 28 27 26 23 23 23 22 20 18 15 13 12 12 12 13 12 10 8 8 7 7 8 11 12
25 29 30 30 32 34 35 34 31 29 29 30 32 33 34 35 34 33 33 32 31 32 34 35 35 35 37 38 37 34 34 36 37 38 41 42 41 42 43 37 31 34 38 40 40 39 38 36 33 30 28 28 29 28 26 25 24 23 23 24 24 23 21 23 24 22 20 18 15 13 13 14 14 13 14 14 13 10 8 7 7 8 9 10 11
29 33 33 32 34 38 41 40 36 32 31 33 34 34 34 33 33 34 35 33 32 33 33 33 33 34 37 39 38 35 34 37 39 39 40 43 42 42 45 39 31 29 32 34 34 33 33 33 32 31 29 28 28 26 25 25 24 23 22 22 22 20 18 20 22 21 17 14 13 13 14 15 14 14 13 13 13 12 10 8 8 9 10 10 11
35 38 38 38 39 40 41 41 38 34 32 33 33 32 32 32 30 32 35 34 33 32 31 31 32 33 35 38 39 37 35 37 40 39 41 43 42 43 46 41 32 28 28 27 25 24 26 28 29 31 29 27 27 25 24 26 26 23 21 21 21 20 19 20 21 20 17 16 15 14 15 15 14 13 13 13 13 13 11 9 9 10 10 10 10
31 34 34 34 34 36 37 37 37 35 34 36 35 32 31 31 30 31 34 33 30 30 31 32 32 32 34 36 37 37 36 38 39 40 42 43 43 45 45 41 33 29 28 27 24 21 21 22 26 29 28 26 26 24 24 27 27 23 21 21 21 20 20 21 22 20 18 16 15 14 14 13 13 11 12 13 14 13 11 9 9 10 9 9 9
20 22 24 23 24 28 32 35 37 36 33 34 35 33 30 29 28 29 30 29 28 30 32 32 32 33 32 32 34 36 37 39 41 43 43 44 45 46 43 41 38 31 27 27 24 21 21 21 23 28 29 27 26 24 24 26 27 24 22 21 21 20 20 21 21 20 18 16 15 14 12 11 12 11 11 12 11 10 10 10 9 9 9 8 8
18 21 24 24 24 26 30 33 35 33 28 27 30 31 29 27 26 26 26 27 29 31 31 30 31 32 31 31 33 35 36 39 43 45 45 45 46 46 43 42 43 37 28 25 23 23 23 21 23 29 31 28 26 24 24 25 26 25 22 21 22 22 20 20 21 19 16 14 13 12 12 11 12 12 11 10 9 9 9 9 9 8 8 7 6
14 19 22 24 24 25 26 28 29 27 24 24 27 28 26 25 25 25 25 27 29 30 30 30 30 30 30 30 31 34 35 38 43 46 46 45 46 47 45 44 46 42 32 26 24 24 23 21 22 28 31 29 27 26 25 25 26 26 24 23 23 22 19 19 20 18 15 13 13 12 12 12 12 12 11 9 9 9 9 8 8 8 7 7 6
10 14 18 20 21 21 21 23 24 23 22 23 25 25 24 24 24 25 26 28 29 30 31 30 30 31 31 30 30 32 34 37 41 45 46 45 45 46 46 45 46 44 37 30 25 23 24 25 27 30 31 29 27 27 26 25 24 25 26 24 21 21 21 20 20 18 14 13 13 12 12 13 12 11 10 10 9 10 10 8 8 8 7 7 7
6 10 13 15 17 18 17 18 20 20 20 21 23 23 23 23 24 25 26 28 30 31 32 31 31 32 31 32 33 33 34 37 40 42 44 44 45 46 47 47 47 46 42 35 28 24 26 29 30 29 28 26 27 28 27 25 22 23 25 23 21 23 24 21 18 17 15 13 13 13 13 13 12 10 11 12 11 11 11 9 8 8 7 7 8
4 4 6 8 11 13 14 15 17 18 19 20 21 22 23 23 24 24 25 28 31 32 31 31 30 30 31 34 34 31 31 36 39 42 44 45 46 47 47 48 49 49 44 37 31 28 28 29 28 26 24 25 28 30 28 24 22 22 24 24 24 24 22 19 18 17 15 14 13 13 12 11 12 12 14 14 12 11 10 9 8 7 7 6 7
6 5 3 2 3 5 7 10 11 13 15 18 20 21 22 23 24 24 26 30 31 30 30 28 27 29 32 31 27 26 30 35 39 42 46 48 50 51 50 50 51 48 41 34 30 29 29 27 25 23 24 27 29 28 26 23 23 24 25 25 25 22 19 19 19 18 16 14 13 11 11 12 14 15 15 14 12 11 10 9 7 6 6 6 6
9 8 6 4 3 1 1 4 5 7 10 12 15 17 18 20 23 25 29 31 30 30 30 29 30 34 35 30 26 27 32 37 42 48 52 55 55 53 51 52 51 44 37 34 31 30 28 27 25 26 27 27 25 23 23 23 24 25 25 24 24 22 19 19 19 17 14 13 12 12 13 15 15 14 14 13 11 10 10 9 8 6 5 5 7
10 9 8 7 6 4 2 1 2 4 6 7 10 12 14 17 20 23 27 30 31 33 34 33 35 38 39 35 31 31 33 40 49 55 57 58 59 57 55 55 51 42 38 38 36 31 30 29 29 29 27 23 20 20 19 19 20 22 23 23 23 21 19 19 19 16 15 15 14 15 16 16 14 13 12 12 10 10 10 10 9 8 7 6 7
10 9 8 8 7 6 5 5 4 4 3 4 5 8 11 14 17 22 28 31 34 36 39 41 42 41 39 38 38 40 42 48 53 55 56 58 60 59 59 59 54 45 41 42 39 34 30 27 25 24 24 22 21 21 20 18 19 19 19 21 21 18 17 18 17 16 17 17 16 16 17 15 14 13 12 11 10 10 11 11 10 9 8 7 7
11 11 10 9 8 8 7 7 7 6 4 3 3 5 8 9 10 13 19 26 31 36 40 45 49 50 46 43 44 47 51 52 50 51 56 59 60 59 59 58 54 49 47 46 41 34 29 26 23 22 23 23 22 22 21 20 20 20 19 19 18 19 20 19 16 16 18 18 16 16 16 15 14 13 12 11 10 10 11 11 10 9 8 7 7
12 11 11 10 10 10 10 9 8 6 3 2 2 3 5 6 8 12 14 15 19 25 32 39 45 51 53 52 49 47 48 49 49 51 55 58 59 59 57 54 51 48 47 44 39 33 30 27 25 24 23 22 22 24 24 23 23 22 21 19 19 22 23 20 18 19 19 18 17 17 15 15 13 12 12 11 10 10 11 10 10 8 7 7 7
14 12 11 11 11 11 10 10 9 6 4 5 5 6 6 6 8 13 18 19 17 16 20 26 32 38 45 51 54 54 54 53 51 52 55 58 59 57 53 52 52 49 42 34 29 29 31 28 26 26 25 24 26 28 26 24 23 23 22 21 21 23 23 20 20 21 19 18 18 16 15 15 13 12 12 12 11 11 10 9 8 8 7 7 6
14 13 12 11 10 10 9 8 7 5 5 6 6 6 6 6 5 8 13 16 16 15 15 18 21 24 30 40 49 56 60 58 53 54 56 56 55 53 49 49 50 48 42 35 28 27 30 28 26 27 28 28 30 30 26 23 23 22 21 20 19 19 21 22 22 21 19 18 17 15 14 14 13 12 12 12 11 11 9 8 8 8 7 7 6
13 13 13 11 10 10 9 8 6 6 6 6 6 6 7 7 6 6 8 11 12 13 18 23 23 22 24 32 42 54 63 61 58 62 63 56 52 50 47 44 41 37 34 33 30 28 28 27 26 28 30 31 30 30 27 26 26 24 22 20 18 18 22 23 21 19 18 17 16 14 14 13 13 12 12 11 11 10 9 8 8 7 6 6 6
12 12 12 11 10 10 9 8 7 7 8 7 7 8 9 10 11 11 10 10 9 11 17 21 20 19 20 22 29 45 65 71 66 63 63 60 56 54 48 41 36 33 31 30 31 29 28 28 27 28 30 31 32 30 28 29 30 27 22 19 19 20 22 22 20 20 19 17 15 14 13 13 12 12 12 11 11 10 8 8 8 7 6 5 5
11 10 9 9 9 9 9 8 7 8 8 8 8 9 10 11 12 12 12 12 11 13 16 16 17 18 19 16 12 16 43 69 76 67 62 63 60 53 46 39 35 34 33 33 33 32 30 30 30 29 30 34 34 31 28 29 30 27 23 21 21 22 22 21 21 22 20 16 14 14 14 13 13 13 12 11 10 9 8 8 7 7 6 5 5
10 10 9 8 7 8 8 8 8 8 8 8 9 10 10 11 11 11 11 12 13 14 15 17 22 24 24 22 24 20 5 40 64 63 57 56 49 41 40 39 35 33 33 33 34 34 33 32 32 31 33 35 33 30 28 28 27 26 25 24 23 22 21 20 21 21 19 15 14 14 14 13 13 13 12 10 9 9 9 8 7 6 6 5 5
11 11 11 10 8 8 8 8 7 7 8 8 9 10 10 10 11 10 10 11 12 11 13 17 20 23 26 26 30 36 33 30 40 44 40 37 34 31 32 33 30 29 30 31 32 35 35 34 34 34 34 33 30 28 28 27 26 26 25 24 22 20 19 18 18 19 17 14 13 14 14 13 13 12 11 10 9 9 9 9 7 6 5 4 4
11 11 12 11 10 8 9 10 9 8 8 8 9 10 11 10 10 10 9 11 11 11 13 17 21 21 23 26 32 39 35 27 30 38 37 33 30 29 28 28 27 26 27 29 32 34 34 33 33 33 31 29 27 27 27 27 26 25 23 21 21 20 17 16 16 16 15 13 14 15 14 13 12 11 10 10 9 9 9 8 7 6 5 4 3
10 10 11 12 12 10 9 11 11 9 8 8 8 9 10 9 9 10 10 11 12 12 13 17 22 20 20 26 33 36 30 23 26 34 36 34 33 30 28 29 29 29 29 31 33 33 33 32 31 30 29 28 27 27 26 25 24 23 22 22 21 19 16 15 15 15 14 14 15 15 14 13 12 11 10 10 10 9 8 8 7 6 5 4 3
10 10 11 12 13 12 11 12 11 10 8 8 8 8 9 8 8 9 10 10 11 11 13 16 19 19 18 22 28 30 27 23 25 28 30 31 32 30 28 28 30 31 32 33 32 32 32 31 29 29 29 29 28 27 26 26 25 24 23 21 18 16 15 14 14 15 15 14 14 14 13 13 12 12 11 10 9 9 9 8 8 6 5 4 4
11 10 11 11 12 11 11 11 11 11 10 10 9 8 9 9 8 9 9 9 9 9 11 13 16 17 17 18 22 25 24 22 23 25 26 26 27 27 26 27 29 31 31 31 30 30 30 29 29 29 30 29 29 28 28 27 26 24 21 19 16 15 14 14 14 15 15 14 14 13 13 13 13 12 11 10 10 9 9 8 8 6 5 4 4
11 10 10 10 10 10 9 10 11 11 11 10 10 10 10 10 9 9 8 7 7 9 11 12 14 14 15 15 17 19 19 20 21 23 24 25 25 25 25 27 28 29 28 28 28 28 28 29 30 30 29 29 29 28 27 26 24 22 20 18 16 15 14 14 14 15 14 14 14 13 13 13 12 12 11 11 11 10 9 9 8 7 5 4 5
12 12 11 10 10 9 9 9 10 10 11 11 10 11 11 11 10 9 7 6 6 7 8 10 11 11 10 10 11 13 14 17 21 23 23 23 24 23 23 24 25 26 26 26 25 26 27 30 31 30 30 30 29 27 25 23 22 20 18 16 15 14 14 13 13 14 14 14 13 13 13 13 12 12 12 11 11 11 10 9 8 7 5 5 5
13 13 13 11 11 11 10 10 10 10 10 10 10 10 11 11 11 10 9 6 5 6 6 7 8 9 8 7 7 8 9 13 17 19 20 21 21 21 21 21 22 22 23 24 25 27 29 31 31 32 32 31 28 25 24 22 20 19 17 15 13 12 12 12 12 14 14 14 13 12 12 12 12 12 12 12 11 11 10 9 8 7 6 5 5
15 15 14 13 12 12 12 12 11 11 10 10 10 10 10 9 9 9 9 8 7 6 5 5 6 7 7 7 7 7 8 11 15 17 18 18 17 18 18 19 20 21 23 24 26 28 30 31 32 33 32 30 27 25 24 22 20 18 16 14 12 11 11 11 12 13 14 14 13 12 12 12 11 11 12 12 11 11 10 9 8 7 6 6 5
16 16 15 15 15 15 15 15 15 14 13 12 11 10 9 8 7 7 7 6 6 5 4 3 4 5 6 8 9 10 12 14 17 18 18 18 18 18 19 20 21 22 24 25 26 28 30 32 33 32 30 28 27 25 23 22 20 17 15 13 11 10 9 10 11 12 13 14 13 12 11 11 10 10 11 11 11 10 9 9 8 7 6 6 6
17 17 17 17 17 17 17 16 16 16 15 14 13 12 11 10 9 7 6 4 3 2 1 1 3 5 6 7 8 10 12 15 17 17 18 19 19 19 20 21 22 23 25 26 27 29 32 33 32 30 28 27 25 24 23 21 19 17 15 13 11 9 8 7 8 10 11 12 12 11 10 10 10 10 10 10 10 10 9 9 8 8 7 6 6
17 17 17 18 17 17 17 17 17 17 16 15 14 14 14 13 11 9 8 6 5 3 2 0 3 6 7 8 8 9 11 13 13 13 15 17 18 19 19 20 21 22 24 26 28 30 32 31 29 27 26 25 23 23 22 20 18 17 16 14 11 10 7 6 5 6 8 10 10 10 10 10 9 9 9 9 9 9 9 9 8 7 7 7 6
18 17 18 18 18 17 17 17 17 16 16 16 15 15 15 15 15 14 13 11 9 7 5 3 0 4 7 9 9 9 10 11 10 10 11 13 15 16 17 18 19 20 21 23 25 27 28 28 27 25 24 23 22 21 21 19 18 18 16 14 12 11 8 6 6 6 7 9 10 10 10 9 9 8 8 8 9 9 9 9 8 7 7 7 6
Wind_Direction
202 205 206 206 208 210 212 215 217 217 218 218 218 219 220 221 223 225 227 229 230 230 230 231 232 233 233 232 231 233 234 233 234 234 233 232 231 230 230 231 229 229 230 229 228 227 227 226 225 225 225 224 222 222 220 218 217 216 220 221 219 222 218 217 237 249 240 236 235 230 231 239 248 252 252 253 258 262 263 263 265 268 271 273 278
202 206 206 206 209 210 211 213 216 217 216 216 217 218 219 222 224 225 226 229 230 230 230 231 231 232 231 231 232 233 234 233 232 233 232 231 230 229 229 229 228 226 227 227 227 227 226 225 224 224 224 223 221 220 218 218 218 216 219 220 217 219 222 222 233 246 246 237 233 234 236 243 248 247 246 251 257 265 271 272 272 273 276 278 278
202 206 206 207 209 209 209 210 212 214 213 213 214 215 217 221 223 224 225 227 230 230 231 230 231 231 231 231 232 233 233 232 231 232 232 231 229 229 229 229 227 225 225 226 226 226 225 224 222 222 223 222 221 221 219 220 220 218 218 221 219 219 224 226 229 239 248 243 234 234 234 238 247 250 253 262 269 276 281 282 281 280 283 285 282
200 203 204 206 207 206 207 208 209 210 211 212 213 213 214 217 221 224 224 225 227 230 231 230 230 231 230 231 232 232 232 230 230 231 232 232 231 230 230 230 229 227 226 226 226 226 225 223 221 220 221 222 222 223 222 221 222 222 219 220 221 220 223 226 226 232 248 253 242 238 241 248 255 258 263 271 277 281 284 286 286 287 289 290 288
197 198 201 203 203 204 206 207 208 209 210 212 213 213 213 213 217 221 222 222 224 228 230 229 228 229 229 231 232 232 232 230 229 229 231 232 231 231 231 231 230 229 228 228 228 228 227 226 224 222 221 220 220 222 223 221 223 222 218 219 222 222 223 227 226 226 238 250 250 249 254 259 264 270 274 277 279 283 287 290 293 294 295 294 291
195 195 197 199 201 203 205 206 207 208 209 210 211 211 212 211 213 216 219 220 221 224 228 228 227 228 229 231 232 233 232 230 229 229 230 231 231 230 230 232 232 231 230 230 230 230 229 229 228 226 225 222 220 221 222 222 222 221 219 221 223 223 224 226 225 223 230 240 247 251 253 255 260 268 276 280 282 284 289 295 297 297 299 301 297
191 191 195 198 199 201 203 205 206 206 207 208 209 209 210 211 212 213 215 217 218 220 223 226 227 228 229 230 232 233 232 230 229 229 229 230 229 228 228 229 230 231 231 232 232 232 232 231 230 230 229 227 225 224 223 221 221 222 222 223 224 225 223 223 223 222 226 233 240 244 246 250 254 259 272 282 286 287 289 294 295 293 296 301 300
188 192 195 197 199 202 205 206 206 205 205 206 208 208 209 211 211 211 212 214 216 218 219 222 226 228 229 230 231 232 231 230 229 228 228 228 228 228 227 227 228 229 231 233 232 232 232 232 232 232 233 232 229 228 226 223 220 221 222 222 224 223 220 220 221 221 227 232 235 238 240 245 252 260 269 274 276 278 280 284 287 287 290 293 298
193 194 194 198 204 207 208 207 205 205 204 206 209 209 209 210 211 211 212 214 215 217 218 219 222 225 227 228 229 230 230 229 228 227 226 226 227 227 226 227 227 228 230 232 231 231 231 232 233 234 235 234 232 230 230 229 224 220 220 220 221 222 220 219 221 222 226 232 234 235 236 240 245 250 254 254 254 259 261 265 275 281 288 294 299
198 196 199 205 208 210 209 207 206 206 206 208 211 211 211 212 212 212 214 215 215 216 217 217 217 221 224 226 227 227 228 229 229 228 226 226 226 226 225 226 226 227 229 229 230 231 232 232 234 236 236 236 233 230 231 231 228 225 223 222 221 221 218 217 221 223 224 230 234 234 236 244 246 241 247 254 256 257 252 254 267 277 291 299 303
198 199 205 208 208 208 208 207 207 207 209 210 211 211 212 212 213 214 215 215 215 216 218 217 216 218 220 222 224 226 228 230 229 228 228 227 226 225 225 226 225 225 227 228 228 230 233 234 235 235 235 234 231 230 229 231 230 229 229 228 226 224 220 217 218 220 224 231 236 236 239 248 251 247 261 269 258 250 249 252 262 276 290 296 300
199 203 207 206 206 206 205 206 207 207 208 209 209 210 211 212 212 213 213 213 213 215 217 217 217 218 218 220 222 225 228 231 229 228 229 228 226 224 225 226 225 223 224 227 229 231 234 234 232 232 232 229 227 227 228 230 231 231 230 229 230 229 227 224 222 221 224 230 237 242 244 247 251 254 264 264 252 245 246 245 250 263 277 284 290
200 205 205 203 204 205 204 204 206 207 208 208 208 209 210 211 212 212 213 213 212 214 216 217 218 219 218 220 222 223 226 230 229 228 229 229 227 225 224 225 225 223 224 227 229 232 234 233 230 230 229 225 223 224 226 228 230 231 231 230 230 230 231 232 231 229 228 231 239 243 238 236 247 254 252 249 245 242 242 244 249 257 269 278 285
201 204 203 203 204 204 204 205 206 207 207 206 206 207 209 212 214 214 214 213 212 214 216 217 219 220 219 221 223 223 225 228 229 228 228 229 228 225 223 225 225 225 227 229 231 234 235 234 231 228 225 222 221 222 223 226 228 229 228 229 229 230 230 232 233 234 233 232 238 240 238 246 255 250 239 237 238 239 244 250 254 260 270 279 285
203 203 201 202 204 203 204 205 205 205 204 203 205 207 210 212 213 213 213 213 213 214 215 216 218 219 220 222 224 226 226 227 227 227 227 227 227 225 223 223 223 226 229 231 233 237 238 237 233 227 222 223 223 222 221 224 226 227 227 227 228 229 230 230 230 232 233 235 241 244 248 256 255 239 231 237 238 240 249 256 260 268 277 282 287
202 201 200 202 204 204 204 205 204 204 202 202 205 207 209 211 211 209 211 213 215 215 215 217 217 218 220 222 223 225 228 227 226 225 225 225 224 223 222 220 221 226 229 231 234 237 238 237 231 223 220 225 228 225 223 222 222 222 223 224 226 228 229 230 229 229 233 239 245 247 248 249 239 224 224 233 237 239 246 256 265 272 275 282 288
198 200 201 202 203 204 205 205 203 202 201 202 206 208 210 211 210 208 210 213 215 215 216 217 217 217 220 221 220 221 225 226 224 222 222 221 220 219 219 219 220 224 228 232 233 234 236 235 229 222 220 226 230 228 224 222 218 216 218 219 221 223 225 227 228 229 234 238 235 228 228 230 226 221 222 229 235 238 237 244 262 268 266 276 287
199 202 204 204 204 205 207 207 205 202 202 205 208 209 210 212 210 209 211 214 217 218 218 218 218 217 218 220 218 217 221 223 221 219 219 218 217 217 218 218 218 221 225 229 230 231 232 232 227 221 220 226 230 228 224 221 216 214 215 216 217 218 216 218 223 223 221 217 209 207 214 220 221 222 224 229 235 237 235 242 263 270 266 272 284
202 204 207 207 207 207 207 208 207 206 207 209 209 210 211 212 211 211 214 217 219 220 220 220 220 218 219 221 219 216 219 222 219 217 217 216 214 215 217 216 216 219 220 221 222 224 227 227 224 221 221 224 225 223 220 219 215 212 213 212 214 215 210 211 214 210 203 201 202 206 213 217 219 221 224 229 233 234 232 242 260 265 263 269 277
208 210 211 211 210 208 207 208 209 209 210 211 210 209 209 211 211 212 215 218 220 222 223 224 224 222 222 224 222 219 219 221 220 217 215 214 212 212 213 213 213 217 218 215 213 213 214 217 217 217 217 219 219 216 215 216 214 211 209 210 211 210 206 206 208 203 199 201 203 204 209 213 213 214 220 225 230 234 234 239 249 248 246 259 269
214 215 215 213 211 209 210 211 213 213 214 214 213 212 212 213 214 214 215 217 219 223 224 227 229 229 226 226 226 224 222 221 221 218 215 214 212 209 209 211 211 212 213 211 208 205 203 204 208 210 210 212 213 211 211 214 213 210 208 209 209 207 204 204 202 197 193 194 194 195 198 203 205 207 214 218 221 229 232 230 232 231 233 250 266
215 214 213 211 210 210 212 214 215 215 216 215 214 215 216 216 216 215 215 217 222 225 226 229 233 235 232 229 229 228 226 223 221 218 214 213 212 209 208 211 212 209 207 204 202 202 202 200 202 207 206 205 207 208 209 212 211 210 210 210 210 212 209 200 192 187 185 185 184 186 190 196 204 208 211 213 213 214 217 218 215 215 223 237 251
215 214 213 212 212 213 215 217 217 216 217 215 214 217 217 216 216 215 214 216 222 227 228 228 232 235 234 231 229 228 227 225 222 218 213 212 212 211 211 215 215 211 206 202 200 202 201 197 200 206 206 205 206 205 206 209 210 209 211 213 214 212 203 189 182 180 181 180 181 186 193 199 206 210 209 207 205 201 199 203 204 206 216 228 234
208 212 213 214 217 218 220 221 219 219 220 218 218 220 219 217 218 218 217 219 224 229 231 228 228 230 231 229 226 223 223 224 222 218 213 210 211 212 212 215 218 216 211 206 201 198 198 198 202 208 208 206 204 202 202 207 208 206 208 211 208 198 186 179 180 180 180 182 185 192 203 206 206 206 202 193 190 191 191 194 201 205 215 229 238
193 206 212 216 220 222 223 224 223 223 223 220 220 222 220 220 222 221 220 222 224 228 230 228 226 227 227 226 225 220 216 218 217 214 212 212 212 212 212 214 217 218 214 209 202 198 200 201 203 204 202 197 195 198 202 205 203 204 206 202 193 187 183 180 182 183 182 186 192 197 205 206 200 193 189 185 184 189 192 194 201 210 221 238 252
137 174 200 213 221 223 226 229 228 226 225 223 223 224 222 222 224 221 220 224 226 228 230 228 226 226 227 229 227 218 210 211 211 209 209 210 211 212 212 214 216 216 214 210 205 200 197 196 194 192 186 183 188 195 200 201 199 200 199 192 188 189 189 186 185 186 188 192 194 197 198 193 187 185 188 188 186 189 194 195 201 211 219 234 255
90 89 97 146 206 222 230 236 236 233 230 230 231 231 229 228 229 227 227 229 230 230 231 231 228 228 230 230 225 214 208 207 205 203 203 205 207 210 211 213 215 213 207 202 198 194 190 187 186 183 178 179 187 193 195 192 189 188 187 188 190 191 190 190 190 190 194 194 191 189 184 179 179 183 185 186 187 191 196 200 207 214 218 232 259
76 73 71 76 73 73 229 244 249 246 242 241 242 241 240 238 239 238 237 235 235 235 234 232 231 231 232 227 214 206 206 203 200 200 200 200 202 203 205 209 211 207 198 191 187 184 181 177 173 171 171 172 176 180 181 180 181 182 183 188 194 194 193 194 194 192 194 192 183 180 180 178 177 179 181 185 190 195 199 205 214 220 223 239 264
86 80 76 72 63 52 43 324 270 263 264 265 262 261 261 257 255 255 251 245 241 239 238 236 235 235 234 227 212 201 201 205 208 207 203 200 199 197 198 203 206 200 192 187 182 174 169 164 161 162 163 162 162 165 167 169 174 179 182 187 192 195 195 194 192 189 190 188 183 181 180 179 177 178 183 188 190 195 204 210 215 220 224 240 261
85 79 73 66 57 51 45 35 26 19 356 329 311 304 297 285 275 270 267 262 255 249 245 243 240 238 236 230 221 214 214 218 218 211 203 200 199 196 196 199 199 194 188 183 175 167 162 159 156 158 160 159 160 162 163 166 171 174 179 184 186 189 193 192 187 187 190 189 185 181 178 178 179 182 188 192 190 197 209 212 214 219 225 238 257
84 80 75 70 67 65 61 54 50 48 38 22 354 323 314 312 306 294 283 276 271 266 259 254 249 244 239 236 233 227 224 223 218 208 201 199 198 197 197 196 192 189 184 176 168 163 162 158 156 160 161 160 160 161 162 166 169 170 173 178 181 187 192 189 184 186 189 186 183 180 178 180 183 186 192 197 195 196 203 206 209 218 227 239 253
75 73 70 69 69 69 68 66 65 62 51 25 351 315 307 310 328 344 340 315 291 278 273 270 265 257 249 244 237 227 220 218 214 205 199 198 197 196 194 188 185 184 181 171 161 158 159 156 156 159 159 157 160 164 166 168 171 173 174 176 183 191 193 191 190 190 187 183 182 181 181 184 188 190 196 200 198 195 197 200 205 215 227 237 243
60 56 53 55 56 56 58 60 60 55 40 26 16 4 356 341 331 341 345 342 331 311 292 286 283 277 269 259 246 228 215 211 208 201 195 194 193 190 187 181 178 176 171 162 153 153 156 157 157 159 159 159 164 168 169 171 174 178 179 181 188 193 194 195 196 192 185 183 184 183 184 189 192 194 198 199 199 199 199 201 207 214 225 233 238
60 56 54 56 57 55 56 57 57 53 38 23 9 354 351 347 330 323 328 335 341 335 320 312 307 295 283 273 256 233 214 205 199 192 189 188 185 181 176 172 169 167 164 160 156 156 158 160 163 165 164 164 167 168 168 170 175 178 181 185 189 191 192 195 195 189 184 186 186 185 189 193 194 197 200 197 198 202 204 207 212 215 222 233 246
56 53 52 55 58 57 55 52 47 41 35 23 4 351 347 346 345 344 335 332 330 322 317 317 314 299 282 272 256 230 209 197 190 184 181 178 174 169 161 155 155 154 156 159 159 159 161 165 169 170 167 164 167 170 169 172 177 180 183 187 188 188 190 192 190 185 184 187 188 188 191 193 194 199 200 197 198 204 207 212 217 216 220 233 252
50 48 46 46 48 49 46 42 32 23 23 18 6 6 13 15 16 18 12 360 350 335 324 322 321 314 302 285 257 226 205 190 180 176 171 166 163 160 154 151 152 151 151 158 162 163 166 170 172 172 167 164 168 172 173 177 182 184 186 188 187 187 188 187 186 186 186 187 188 188 190 192 193 197 199 200 203 207 211 213 214 213 218 234 255
47 44 41 37 39 43 43 38 27 16 14 15 12 14 19 21 20 20 16 9 356 337 336 353 10 4 354 355 340 256 207 183 167 159 158 156 156 157 155 152 153 152 154 161 166 164 166 171 172 171 169 168 169 173 174 177 183 187 190 190 187 187 189 188 189 192 190 186 186 188 190 192 191 192 199 204 205 206 208 209 208 208 214 228 250
48 45 46 46 46 48 48 40 28 18 14 16 21 22 19 18 18 15 9 3 349 334 346 18 37 34 27 34 39 28 131 156 145 139 142 146 147 150 151 149 152 155 157 162 164 163 164 169 170 171 170 170 170 173 176 179 185 189 190 189 188 190 192 192 193 194 190 185 185 187 189 190 189 190 199 207 206 205 204 202 203 207 209 216 234
49 44 47 52 50 50 53 48 36 26 20 20 28 31 25 21 22 19 17 16 8 1 9 17 27 40 46 51 59 59 64 90 108 110 115 124 129 138 144 145 150 156 156 158 161 163 164 168 170 170 169 170 172 176 179 182 185 186 187 188 190 190 189 187 188 189 186 184 185 185 185 187 187 189 199 208 208 205 202 199 203 210 214 224 243
53 48 47 49 48 49 56 54 46 37 27 20 29 35 29 22 22 24 33 40 29 20 22 15 11 29 57 69 76 79 79 84 98 106 110 118 127 136 141 142 146 151 153 156 160 163 165 167 168 167 166 169 173 177 180 181 182 183 184 185 184 180 176 176 179 181 181 181 181 182 183 186 186 188 197 207 208 205 201 202 206 210 219 241 265
49 46 43 42 39 39 45 48 45 44 37 28 34 43 37 27 24 24 34 47 38 23 26 28 23 32 67 91 100 104 106 106 110 116 123 132 138 142 145 148 152 155 157 160 163 164 165 165 164 164 166 169 173 175 176 176 175 174 173 173 172 169 169 172 176 177 177 178 180 182 185 188 188 191 199 204 205 204 202 206 211 213 220 241 266
44 40 36 35 33 31 31 34 36 39 41 34 33 43 46 42 39 34 34 44 46 32 26 31 35 43 67 93 106 112 113 112 114 120 127 134 139 144 148 153 156 159 162 165 166 165 164 163 163 164 167 169 170 171 171 169 167 165 165 165 165 166 170 175 178 179 180 183 186 189 192 191 192 197 202 203 203 203 204 207 211 215 225 246 268
46 41 36 35 36 32 28 26 27 29 35 35 29 32 44 52 59 60 50 44 47 50 45 42 45 52 63 80 97 105 105 106 112 119 123 129 136 142 149 155 160 163 165 167 167 166 164 164 164 165 166 167 167 166 165 165 164 164 163 163 165 170 175 181 183 184 186 189 191 193 194 194 196 201 206 208 208 207 205 205 209 215 228 249 267
49 49 44 39 39 38 32 28 26 21 21 27 27 26 32 42 53 67 75 70 61 64 65 63 62 64 65 70 82 92 97 102 110 117 124 131 137 143 150 157 161 164 166 167 168 168 166 165 163 163 163 163 164 165 165 165 165 163 162 164 169 176 181 185 186 188 191 194 195 196 198 198 201 206 210 210 211 209 205 204 207 213 226 247 265
44 50 51 45 42 42 38 34 33 26 17 19 25 24 24 28 34 42 62 85 88 75 67 69 75 78 75 70 74 82 94 106 116 123 129 134 138 144 150 155 159 163 165 167 168 168 166 164 162 162 162 163 164 165 165 164 163 163 164 167 173 179 183 186 189 192 195 198 199 202 204 205 208 212 213 212 211 211 208 205 205 209 224 242 257
38 40 45 43 40 41 40 35 35 34 29 23 23 23 22 21 21 20 24 38 63 72 72 79 91 95 91 86 86 87 94 108 119 125 130 134 139 144 148 153 157 161 163 165 167 168 166 164 163 163 163 164 164 163 162 161 162 164 166 169 172 179 185 192 197 202 207 209 209 210 211 212 214 215 215 214 210 207 206 205 204 212 227 241 250
40 36 38 39 37 38 40 39 37 37 37 33 31 31 30 25 21 21 17 12 19 40 59 76 95 103 104 104 108 109 112 122 130 134 136 139 142 145 147 151 156 159 162 164 167 168 168 167 166 166 165 165 163 162 162 162 163 165 167 171 175 183 193 201 208 214 219 220 219 217 215 216 215 212 210 210 207 202 202 207 212 219 228 234 240
46 42 40 39 38 37 38 40 40 38 37 37 39 41 40 35 30 30 26 14 8 16 33 54 80 101 111 120 130 136 136 138 142 145 147 149 151 151 151 154 157 161 163 166 169 171 172 170 169 168 166 164 163 163 163 164 165 166 167 168 173 179 190 202 211 218 222 223 223 219 215 214 211 203 198 201 203 204 206 212 218 223 225 226 228
49 47 45 43 43 42 40 40 43 42 39 37 38 38 36 39 41 38 34 30 22 1 350 110 124 120 112 114 125 132 133 136 142 146 148 151 154 155 156 159 162 165 168 171 174 175 175 173 171 169 166 165 165 165 164 164 166 167 166 166 166 168 177 196 211 218 219 219 216 209 201 198 195 191 191 198 206 211 216 219 220 221 220 217 216
46 46 46 45 44 44 43 43 45 44 41 39 37 33 30 35 41 39 33 28 21 7 354 213 164 148 129 120 120 120 120 125 132 139 145 151 156 159 161 162 164 166 170 174 175 176 176 174 171 168 167 166 166 166 166 166 167 169 170 170 167 163 167 181 197 201 200 197 193 188 183 184 186 190 198 208 213 216 218 217 213 211 211 207 207
46 46 46 44 42 41 41 40 40 41 41 41 39 36 33 35 37 37 35 33 27 19 12 5 140 148 136 127 122 122 123 123 123 128 141 153 160 164 166 168 168 169 172 174 175 175 175 174 172 170 169 169 169 170 171 172 173 174 175 173 170 168 167 165 165 171 180 183 182 181 183 188 193 199 207 213 214 214 212 207 200 198 201 201 200